This demonstration page uses our WeatherBlox Daily Observations layout. Learn more.

39.51506, -84.39828

Hourly Observations for August 3, 2020

Temp ( °F °C ) Dew Point ( °F °C ) Humidity (%) Winds ( mph kmh ) Pressure ( in mb ) Visibility ( mi km ) Precip ( " mm )
12:15 am 00:15 Clear 66 18.9 66 18.9 100 100 Calm 29.99 1015 10 16.0934 0 0
12:35 am 00:35 Clear with Mist and Fog 66 18.8 66 18.7 99 99 Calm 29.99 1015 7 11.26538 0 0
12:55 am 00:55 Partly Cloudy 66 19 N/A N/A Calm 29.99 1015 10 16.0934 0 0
1:15 am 01:15 Mostly Cloudy 66 19 N/A N/A Calm 29.98 1015 10 16.0934 0 0
1:35 am 01:35 Clear 64 18 N/A N/A Calm 29.99 1016 10 16.0934 0 0
1:55 am 01:55 Clear 64 18 N/A N/A Calm 29.98 1015 10 16.0934 0 0
2:15 am 02:15 Clear 64 18 N/A N/A Calm 29.98 1015 7 11.26538 0 0
2:35 am 02:35 Clear 64 18 N/A N/A Calm 29.98 1015 7 11.26538 0 0
2:55 am 02:55 Clear 66 19 N/A N/A Calm 29.98 1015 10 16.0934 0 0
3:15 am 03:15 Clear 66 19 N/A N/A Calm 29.97 1015 10 16.0934 0 0
3:35 am 03:35 Clear 67 19.2 67 19.2 100 100 Calm 29.97 1015 10 16.0934 0 0
3:55 am 03:55 Clear 66 19 66 19 100 100 Calm 29.97 1015 7 11.26538 0 0
4:15 am 04:15 Partly Cloudy 66 19 N/A N/A Calm 29.97 1015 7 11.26538 0 0
4:35 am 04:35 Clear 66 19 N/A N/A Calm 29.97 1015 7 11.26538 0 0
4:55 am 04:55 Mostly Cloudy 66 19 N/A N/A Calm 29.97 1015 10 16.0934 0.01 0.254
5:15 am 05:15 Clear 66 19 N/A N/A Calm 29.97 1015 7 11.26538 0 0
5:35 am 05:35 Partly Cloudy 66 19 N/A N/A Calm 29.97 1015 10 16.0934 0 0
5:55 am 05:55 Clear 66 19 66 19 100 100 Calm 29.98 1015 7 11.26538 0 0
6:15 am 06:15 Clear 66 19 66 19 100 100 Calm 29.99 1015 10 16.0934 0 0
6:35 am 06:35 Clear 66 19 N/A N/A Calm 29.99 1015 7 11.26538 0 0
6:55 am 06:55 Sunny 67 19.3 66 19 98 98 Calm 29.99 1015 10 16.0934 0 0
7:15 am 07:15 Sunny 67 19.2 66 19 99 99 Calm 30 1016 10 16.0934 0 0
7:35 am 07:35 Sunny 67 19.7 67 19.6 99 99 Calm 30 1016 7 11.26538 0 0
7:55 am 07:55 Partly Cloudy 68 20.2 67 19.7 97 97 Calm 30 1016 10 16.0934 0 0
8:15 am 08:15 Sunny 69 20.7 68 20.1 96 96 Calm 30.01 1016 10 16.0934 0 0
8:35 am 08:35 Partly Cloudy 70 21.1 67 19.7 92 92 Calm 30.01 1016 10 16.0934 0 0
8:55 am 08:55 Sunny 71 21.6 68 19.9 90 90 SSW 3 6 30.01 1016 10 16.0934 0 0
9:15 am 09:15 Sunny 72 22.1 69 20.3 90 90 SSW 3 6 30.01 1016 10 16.0934 0 0
9:35 am 09:35 Sunny 72 22 68 19.9 88 88 WSW 3 6 30 1016 10 16.0934 0 0
9:55 am 09:55 Sunny 73 22.5 68 20.1 86 86 SW 6 9 30.01 1016 10 16.0934 0 0
10:15 am 10:15 Mostly Cloudy 72 22.4 68 19.8 85 85 WSW 7 11 30.01 1016 10 16.0934 0 0
10:35 am 10:35 Cloudy 72 22.3 67 19.5 84 84 SSW 5 7 30.01 1016 10 16.0934 0 0
10:55 am 10:55 Cloudy 73 22.8 67 19.7 83 83 SW 3 6 30.01 1016 10 16.0934 0 0
11:15 am 11:15 Cloudy 73 23 67 19.5 81 81 SSW 5 7 30.01 1016 10 16.0934 0 0
11:35 am 11:35 Mostly Cloudy 76 24.6 69 20.8 79 79 SSW 3 6 30 1016 10 16.0934 0 0
11:55 am 11:55 Mostly Cloudy 76 24.5 68 19.8 75 75 Calm 29.99 1016 10 16.0934 0 0
12:15 pm 12:15 Sunny 77 25 68 20.1 74 74 SW 3 6 29.99 1016 10 16.0934 0 0
12:35 pm 12:35 Partly Cloudy 78 25.6 67 19.5 69 69 SW 8 13 29.99 1016 10 16.0934 0 0
12:55 pm 12:55 Sunny 79 26.3 66 19.1 65 65 SSW 9 15 29.98 1015 10 16.0934 0 0
1:15 pm 13:15 Sunny 80 26.5 65 18.3 61 61 Calm 29.98 1015 10 16.0934 0 0
1:35 pm 13:35 Sunny 81 27 64 17.6 56 56 SW 10 17 29.97 1015 10 16.0934 0 0
1:55 pm 13:55 Sunny 81 27.4 63 17.2 54 54 SSW 8 13 29.96 1014 10 16.0934 0 0
2:15 pm 14:15 Sunny 82 27.5 64 17.9 56 56 SSW 13 20 29.95 1014 10 16.0934 0 0
2:35 pm 14:35 Mostly Cloudy 80 26.9 66 18.8 61 61 SSW 13 20 29.95 1014 10 16.0934 0 0
2:55 pm 14:55 Sunny 81 27.1 67 19.2 62 62 WSW 12 19 29.95 1014 10 16.0934 0 0
3:15 pm 15:15 Sunny 82 27.5 67 19.6 62 62 SSW 8 13 29.93 1013 10 16.0934 0 0
3:35 pm 15:35 Mostly Cloudy 80 26.6 67 19.6 66 66 W 5 7 29.93 1014 10 16.0934 0 0
3:55 pm 15:55 Partly Cloudy 82 27.9 67 19.5 60 60 SW 6 9 29.92 1013 10 16.0934 0 0
4:15 pm 16:15 Mostly Cloudy 83 28.6 68 19.8 59 59 WSW 12 19 29.91 1013 10 16.0934 0 0
4:35 pm 16:35 Sunny 83 28.3 66 18.9 57 57 WSW 6 9 29.91 1013 10 16.0934 0 0
4:55 pm 16:55 Partly Cloudy 83 28.2 67 19.4 59 59 WSW 8 13 29.91 1013 10 16.0934 0 0
5:15 pm 17:15 Cloudy 74 23.4 65 18.5 74 74 NW 21 33 29.93 1013 10 16.0934 0 0
5:35 pm 17:35 Cloudy with Heavy Rain 70 21 66 18.7 87 87 NNW 13 20 29.95 1014 10 16.0934 0 0
5:55 pm 17:55 Cloudy with Light Rain 69 20.5 66 18.9 91 91 NW 10 17 29.95 1014 10 16.0934 0 0
6:15 pm 18:15 Cloudy with Light Rain 69 20.3 65 18.6 90 90 N 8 13 29.95 1014 10 16.0934 0 0
6:35 pm 18:35 Cloudy with Thunderstorms 68 20.2 65 18.3 89 89 Calm 29.96 1015 10 16.0934 0.01 0.254
6:55 pm 18:55 Cloudy with Rain 67 19.6 65 18.3 92 92 Calm 29.97 1015 7 11.26538 0.01 0.254
7:15 pm 19:15 Cloudy with Rain 67 19.6 64 18 91 91 Calm 29.97 1015 5 8.0467 0 0
7:35 pm 19:35 Cloudy with Light Rain 67 19.7 65 18.5 93 93 Calm 29.97 1015 7 11.26538 0 0
7:55 pm 19:55 Cloudy with Light Rain 67 19.7 65 18.5 93 93 Calm 29.97 1015 10 16.0934 0 0
8:15 pm 20:15 Cloudy with Light Rain 67 19.7 66 18.8 95 95 Calm 29.97 1015 10 16.0934 0 0
8:35 pm 20:35 Partly Cloudy with Light Rain 67 19.6 66 18.9 96 96 Calm 29.96 1014 10 16.0934 0.01 0.254
8:55 pm 20:55 Partly Cloudy with Light Rain 67 19.6 66 19 96 96 Calm 29.96 1014 10 16.0934 0.01 0.254
9:15 pm 21:15 Clear 67 19.6 66 19.1 97 97 Calm 29.95 1014 10 16.0934 0 0
9:35 pm 21:35 Clear 67 19.7 66 19.1 96 96 Calm 29.95 1014 10 16.0934 0 0
9:55 pm 21:55 Clear 67 19.4 67 19.2 99 99 Calm 29.96 1014 10 16.0934 0 0
10:15 pm 22:15 Clear 67 19.3 67 19.2 99 99 Calm 29.97 1015 10 16.0934 0 0
10:35 pm 22:35 Clear 66 18.9 66 18.8 99 99 Calm 29.97 1015 10 16.0934 0 0
10:55 pm 22:55 Partly Cloudy 66 18.8 66 18.7 99 99 Calm 29.97 1015 10 16.0934 0 0
11:15 pm 23:15 Mostly Cloudy 66 18.8 66 18.8 100 100 Calm 29.97 1015 10 16.0934 0 0
11:35 pm 23:35 Partly Cloudy 66 19 66 19 100 100 Calm 29.97 1015 10 16.0934 0 0
11:55 pm 23:55 Cloudy 66 18.8 66 18.7 99 99 Calm 29.97 1015 10 16.0934 0 0

Powered by AerisWeather